TimeCDT,TemperatureF,Dew PointF,Humidity,Sea Level PressureIn,VisibilityMPH,Wind Direction,Wind SpeedMPH,Gust SpeedMPH,PrecipitationIn,Events,Conditions,WindDirDegrees,DateUTC
12:53 AM,19.9,14.0,78,30.11,10.0,WNW,8.1,-,N/A,,Clear,300,2013-03-11 05:53:00
1:53 AM,19.0,12.9,77,30.10,10.0,West,6.9,-,N/A,,Clear,280,2013-03-11 06:53:00
2:53 AM,19.9,14.0,78,30.10,10.0,WNW,8.1,-,N/A,,Clear,290,2013-03-11 07:53:00
3:53 AM,19.0,14.0,81,30.08,10.0,WNW,5.8,-,N/A,,Clear,290,2013-03-11 08:53:00
4:53 AM,19.0,14.0,81,30.05,10.0,WNW,8.1,-,N/A,,Clear,290,2013-03-11 09:53:00
5:53 AM,18.0,12.9,81,30.05,10.0,WSW,5.8,-,N/A,,Clear,250,2013-03-11 10:53:00
6:53 AM,17.1,12.9,84,30.06,10.0,WSW,4.6,-,N/A,,Clear,250,2013-03-11 11:53:00
7:53 AM,17.1,12.9,84,30.07,10.0,West,3.5,-,N/A,,Clear,260,2013-03-11 12:53:00
8:53 AM,21.0,15.1,78,30.07,10.0,WSW,5.8,-,N/A,,Clear,250,2013-03-11 13:53:00
9:53 AM,27.0,19.0,72,30.06,10.0,Variable,4.6,-,N/A,,Clear,0,2013-03-11 14:53:00
10:53 AM,33.1,19.9,59,30.03,10.0,Variable,4.6,-,N/A,,Clear,0,2013-03-11 15:53:00
11:53 AM,39.0,19.0,45,30.04,10.0,Variable,3.5,-,N/A,,Clear,0,2013-03-11 16:53:00
12:53 PM,46.0,19.0,34,30.01,10.0,Variable,3.5,-,N/A,,Mostly Cloudy,0,2013-03-11 17:53:00
1:53 PM,50.0,16.0,26,29.98,10.0,NW,9.2,-,N/A,,Clear,310,2013-03-11 18:53:00
2:53 PM,53.1,19.9,27,29.94,10.0,Variable,6.9,-,N/A,,Clear,0,2013-03-11 19:53:00
3:53 PM,54.0,21.9,29,29.93,10.0,WNW,8.1,-,N/A,,Clear,300,2013-03-11 20:53:00
4:53 PM,55.9,24.1,29,29.92,10.0,NW,10.4,-,N/A,,Clear,320,2013-03-11 21:53:00
5:53 PM,55.0,25.0,31,29.94,10.0,WNW,12.7,-,N/A,,Mostly Cloudy,300,2013-03-11 22:53:00
6:53 PM,53.1,28.0,38,29.96,10.0,NW,9.2,-,N/A,,Overcast,320,2013-03-11 23:53:00
7:53 PM,48.9,28.0,44,29.99,10.0,NNW,12.7,-,N/A,,Overcast,330,2013-03-12 00:53:00
8:53 PM,46.9,28.9,50,30.02,10.0,NW,10.4,-,N/A,,Overcast,310,2013-03-12 01:53:00
9:53 PM,46.0,32.0,58,30.03,10.0,NW,6.9,-,N/A,,Mostly Cloudy,310,2013-03-12 02:53:00
10:53 PM,46.0,32.0,58,30.07,10.0,NNW,11.5,-,N/A,,Overcast,330,2013-03-12 03:53:00
11:53 PM,43.0,32.0,65,30.09,10.0,NNW,9.2,-,N/A,,Overcast,330,2013-03-12 04:53:00